• Join FlightAware (Why Join?)
  • Login
  • US Flag 
10:49AM EDT


 

Airport Tracker/Info


-or-


 

Live Flight TrackerFlight Track Log ✈ N2270L ✈ 11-Aug-2013 ✈ 3D2 - KPTK

Flight Track Log - Related Links

Times and Time Zones

All times are in EDT time to prevent confusion due to time zone crossing. See the N2270L flight status page for this flight to view local times or setup timezone preferences in your user account.

Time Position Orientation Groundspeed Altitude Reporting Facility
EDT Latitude Longitude Course Direction KTS MPH feet Rate Location/Type
10:19AM 44.9817 -87.0322 144° Southeast 118 136 7,800  Level Minneapolis Center
10:20AM 44.9469 -86.9961 144° Southeast 126 145 8,700 540 Climbing Minneapolis Center
10:21AM 44.9178 -86.9653 143° Southeast 130 150 9,000 180 Climbing Minneapolis Center
10:22AM 44.8814 -86.9289 145° Southeast 149 171 9,100  Climbing Minneapolis Center
10:23AM 44.8394 -86.8922 148° Southeast 169 194 9,000 -60 Descending Minneapolis Center
10:24AM 44.8008 -86.8494 142° Southeast 177 204 9,000  Level Minneapolis Center
10:25AM 44.7564 -86.7939 138° Southeast 179 206 9,000  Level Minneapolis Center
10:26AM 44.7139 -86.7386 137° Southeast 176 203 9,000 -60 Level Minneapolis Center
10:27AM 44.6819 -86.6869 131° Southeast 175 201 8,900 -60 Descending Minneapolis Center
10:28AM 44.6517 -86.6328 128° Southeast 178 205 8,900  Level Minneapolis Center
10:29AM 44.6236 -86.5775 125° Southeast 176 203 8,900  Level Minneapolis Center
10:30AM 44.5936 -86.5231 128° Southeast 177 204 8,900  Level Minneapolis Center
10:31AM 44.5583 -86.4564 127° Southeast 178 205 8,900  Level Minneapolis Center
10:33AM 44.5231 -86.3922 128° Southeast 176 203 8,900  Level Minneapolis Center
10:34AM 44.4900 -86.3428 133° Southeast 175 201 8,900  Level Minneapolis Center
10:35AM 44.4556 -86.2956 136° Southeast 175 201 8,900  Level Minneapolis Center
10:36AM 44.4253 -86.2397 127° Southeast 179 206 8,900  Level Minneapolis Center
10:37AM 44.3964 -86.1850 126° Southeast 177 204 8,900  Level Minneapolis Center
10:38AM 44.3719 -86.1414 128° Southeast 177 204 8,900  Level Minneapolis Center
10:39AM 44.3269 -86.0689 131° Southeast 177 204 8,900  Level Minneapolis Center
10:40AM 44.3000 -86.0275 132° Southeast 180 207 8,900  Level Minneapolis Center
10:41AM 44.2600 -85.9650 132° Southeast 180 207 8,900  Level Minneapolis Center
10:42AM 44.2286 -85.9122 130° Southeast 179 206 8,900  Level Minneapolis Center
10:43AM 44.1967 -85.8597 130° Southeast 177 204 8,900  Level Minneapolis Center
10:44AM 44.1572 -85.7933 130° Southeast 184 212 8,900  Level Minneapolis Center
10:45AM 44.1253 -85.7400 130° Southeast 181 208 8,900  Level Minneapolis Center
10:46AM 44.0950 -85.6856 128° Southeast 179 206 8,900  Level Minneapolis Center
10:47AM 44.0614 -85.6294 130° Southeast 181 208 8,900  Level Minneapolis Center
10:48AM 44.0289 -85.5744 129° Southeast 182 209 9,000  Climbing Minneapolis Center
10:49AM 43.9947 -85.5247 134° Southeast 181 208 9,000  Level Minneapolis Center
10:50AM 43.9614 -85.4728 132° Southeast 180 207 9,000  Level Minneapolis Center
10:51AM 43.9292 -85.4228 132° Southeast 177 204 9,000  Level Minneapolis Center
10:52AM 43.8850 -85.3458 129° Southeast 180 207 9,000 -60 Level Minneapolis Center
10:53AM 43.8536 -85.2900 128° Southeast 182 209 8,900  Descending Minneapolis Center
10:54AM 43.8214 -85.2369 130° Southeast 181 208 9,000  Climbing Minneapolis Center
10:56AM 43.7894 -85.1822 129° Southeast 182 209 8,900  Descending Minneapolis Center
10:57AM 43.7497 -85.1208 132° Southeast 180 207 9,000  Climbing Minneapolis Center
10:58AM 43.7153 -85.0706 133° Southeast 179 206 9,000 -60 Level Minneapolis Center
10:59AM 43.6756 -85.0067 131° Southeast 182 209 8,900 -60 Descending Minneapolis Center
11:00AM 43.6456 -84.9506 126° Southeast 182 209 8,900  Level Minneapolis Center
11:01AM 43.6131 -84.8986 131° Southeast 180 207 9,000  Climbing Minneapolis Center
11:02AM 43.5792 -84.8475 132° Southeast 180 207 9,000  Level Minneapolis Center
11:03AM 43.5461 -84.7964 132° Southeast 180 207 9,000  Level Minneapolis Center
11:04AM 43.5153 -84.7425 128° Southeast 179 206 9,000  Level Minneapolis Center
11:05AM 43.4778 -84.6797 129° Southeast 178 205 9,000  Level Minneapolis Center
11:06AM 43.4472 -84.6275 129° Southeast 176 203 9,000  Level Minneapolis Center
11:07AM 43.4153 -84.5758 130° Southeast 177 204 9,000  Level Minneapolis Center
11:08AM 43.3822 -84.5247 132° Southeast 178 205 9,000  Level Minneapolis Center
11:09AM 43.3481 -84.4750 133° Southeast 179 206 9,000 -360 Level Minneapolis Center
11:21AM 42.9594 -83.8686 131° Southeast 176 203 5,100 -360 Descending Cleveland Center
11:22AM 42.9253 -83.8214 135° Southeast 171 197 4,900 -120 Descending Cleveland Center
11:23AM 42.8933 -83.7714 131° Southeast 165 190 4,900  Level Cleveland Center
11:24AM 42.8436 -83.7661 176° South 159 183 5,000  Climbing Cleveland Center
11:25AM 42.8219 -83.7111 118° Southeast 166 191 4,900 -180 Descending Cleveland Center
11:26AM 42.8178 -83.6431 95° East 170 196 4,700 -420 Descending Cleveland Center
11:27AM 42.8131 -83.5778 96° East 175 201 4,100 -600 Descending Cleveland Center
11:28AM 42.8064 -83.5122 98° East 170 196 3,500 -600 Descending Cleveland Center
11:29AM 42.7850 -83.4519 116° Southeast 160 184 2,900 -480 Descending Cleveland Center
11:30AM 42.7525 -83.4136 139° Southeast 153 176 2,600 -480 Descending Cleveland Center
11:31AM 42.7131 -83.4089 175° South 124 143 2,000 -600 Descending Cleveland Center
11:32AM 42.6844 -83.3936 159° South 110 127 1,500 -540 Descending Cleveland Center